Время (UTC), дата Ветер
(°,м/с) 
Видим.   Явления Облачность Т
(°С)
Тd
(°С)
f(%) Тe
(°С)
Pmin
(гПа)
dP
(гПа)
Po
(мм)
O2
(г/м3)
Тmin Tmax R s Состояние
почвы
00 01.02.14 040 (СВ) 10 км    ясно 
-17.9 -21.9 71 -20  1043.5  0.3  779  338           
03 01.02.14 050 (СВ) 10 км    ясно 
-17.7 -21.7 71 -20  1042.9  -0.6  779  337  -17.9      равномерный
сухой снег
100% 
06 01.02.14 050 (СВ) 10 км    ясно 
-15 -19.9 66 -17  1042.7  0.1  779  334           
09 01.02.14 040 (СВ) 10 км    ясно 
-10.4 -17.2 57 -13  1042.2  -0.4  779  328           
12 01.02.14 050 (СВ) 3{10}  10 км    ясно 
-7.5 -14.6 57 -10  1041.1  -1  778  324           
15 01.02.14 040 (СВ) 10 км    ясно 
-11 -15.6 69 -14  1041.7  0.5  778  328    -7.4       
18 01.02.14 050 (СВ) 10 км    ясно 
-13.1 -17 73 -15  1041.6  0.1  778  331           
21 01.02.14 060 (СВ) 10 км    ясно 
-14.1 -17.7 74 -14  1041.4  -0.3  778  332           
00 02.02.14 060 (СВ) 10 км    ясно 
-13.7 -17.1 75 -16  1040.2  -1.2  777  331           
03 02.02.14 030 (СВ) 10 км    ясно 
-13.6 -16.4 79 -14  1039.3  -0.9  776  331  -14.2      равномерный
сухой снег
100% 
06 02.02.14 060 (СВ) 10 км    ясно 
-9.7 -14.4 69 -13  1039.3  776  326           
09 02.02.14 070 (В) 4-10{11}  10 км    ясно 
-4.3 -12.7 52 -7  1038.4  -0.8  776  319           
15 02.02.14 050 (СВ) 3{13}  10 км    ясно 
-6.4 -11.6 66 -9  1036.3  774  321    -2.5       
18 02.02.14 050 (СВ) 3{11}  10 км    ясно 
-9.1 -13.6 70 -12  1036.4  774  324           
21 02.02.14 050 (СВ) 3{10}  10 км    ясно 
-10.6 -14.5 73 -14  1036  -0.4  774  326           
00 03.02.14 050 (СВ) 10 км    ясно 
-10.4 -13.9 75 -12  1034.8  -1.2  773  325           
03 03.02.14 060 (СВ) 10 км    ясно 
-10.4 -13.9 75 -12  1033.6  -1.1  772  325  -10.7      равномерный
сухой снег
100% 
06 03.02.14 060 (СВ) 10 км    ясно 
-8.3 -13.4 67 -10  1033.6  772  322           
09 03.02.14 050 (СВ) 10 км    ясно 
-3.8 -11.7 54 -6  1033.2  -0.3  772  317           
12 03.02.14 040 (СВ) 2{10}  10 км    ясно 
-2.3 -9.8 56 -3  1032.4  -0.8  771  314           
15 03.02.14 040 (СВ) 2{11}  10 км    ясно 
-5.6 -10.3 69 -7  1032.4  771  318    -2       
18 03.02.14 050 (СВ) 10 км    ясно 
-8 -11.9 73 -10  1032  -0.4  771  321           
21 03.02.14 050 (СВ) 10 км    ясно 
-9.3 -13.4 72 -12  1031.5  -0.6  771  323           
00 04.02.14 040 (СВ) 10 км    ясно 
-11.8 -15 77 -12  1031.3  -0.2  770  326           
03 04.02.14 080 (В) 10 км    ясно 
-12.5 -15.5 78 -12  1030.8  -0.5  770  327  -12.5      равномерный
сухой снег
100% 
06 04.02.14 030 (СВ) 10 км    ясно 
-10.6 -15.1 70 -10  1030.8  770  324  -12.5         
09 04.02.14 030 (СВ) 10 км    ясно 
-5.5 -13.3 54 -5  1030.1  -0.6  770  318           
12 04.02.14 030 (СВ) 10 км    ясно 
-3.5 -11.9 52 -3  1029.9  -0.2  770  315           
15 04.02.14 тихо ()   10 км    1/0 средняя 
[Ac trans]
-6 -11.2 66 -6  1029.9  0.1  769  318    -2.7       
18 04.02.14 тихо ()   10 км    4/0 средняя 
[Ac trans]
-8.3 -10.8 82 -8  1029.5  -0.5  769  321           
21 04.02.14 190 (Ю) 10 км    ясно 
-9.7 -11.3 88 -10  1028.7  -0.8  769  322           
00 05.02.14 тихо ()   10 км    ясно 
-10.9 -12.5 88 -11  1028.4  -0.4  768  324           
03 05.02.14 тихо ()   10 км    ясно 
-12.5 -14.2 87 -13  1028.3  0.1  768  326  -12.5      равномерный
сухой снег
100% 
06 05.02.14 170 (Ю) 10 км    3/0 средняя 
[Ac trans]
-8.2 -11.3 78 -8  1028.7  0.5  769  320  -12.7         
09 05.02.14 180 (Ю) 10 км    3/0 верхняя 
[Ci fib]
-0.5 -10.5 47 1027.4  -1.2  768  311           
12 05.02.14 280 (З) 10 км    3/0 верхняя 
[Ci fib]
+3.5 -15.7 23 +4  1026  -1.3  767  306           
15 05.02.14 тихо ()   10 км    6/3 1000 м верхняя 
[Sc|Ci fib]
-1.4 -14.6 36 -1  1026.1  767  312    +4.1       
18 05.02.14 тихо ()   10 км    ясно 
-5.2 -9.7 71 -5  1026.3  0.2  767  316           
21 05.02.14 тихо ()   10 км    ясно 
-7.9 -10.5 82 -8  1025.8  -0.6  766  319           
00 06.02.14 050 (СВ) 10 км    ясно 
-7.6 -10.7 79 -7  1025.2  -0.5  766  319           
03 06.02.14 040 (СВ) 10 км    4/0 верхняя 
[Ci fib]
-9.1 -10.9 87 -9  1025.5  0.2  766  320  -9.1      равномерный
мокрый или
старый снег
100% 
06 06.02.14 050 (СВ) 4000 м  дымка{туман}  1/0 средняя 
[Ac trans]
-10.6 -12.8 84 -12  1026  0.4  767  323  -12.3         
09 06.02.14 030 (СВ) 10 км    ясно 
-4 -10.2 62 -4  1025  -0.8  766  314           
12 06.02.14 030 (СВ) 10 км    ясно 
-1.4 -7.9 61 -2  1024  -1  765  311           
15 06.02.14 060 (СВ) 10 км    ясно 
-4 -7.5 76 -4  1023.9  0.1  765  314    -0.7       
18 06.02.14 040 (СВ) 4000 м  дымка  ясно 
-5.9 -8 85 -6  1023.9  765  316           
21 06.02.14 040 (СВ) 0500 м  туман  ?/?  
-7.1 -8.1 92 -7  1023.9  765  317           
00 07.02.14 050 (СВ) 0500 м  туман  ?/?  
-7.8 -8.8 93 -9  1023.9  0.1  765  318           
03 07.02.14 090 (В) 1000 м  в посл. час туман  10/10 200 м 
[St]
-8.6 -9.7 92 -8  1023.6  -0.3  765  319  -8.9      равномерный
мокрый или
старый снег
100% 
06 07.02.14 020 (С) 4000 м  дымка{туман}  9/6 200 м средняя 
[Sc|Ac trans]
-8.6 -9.8 91 -8  1024  0.4  765  319           
09 07.02.14 070 (В) 10 км    8/0 верхняя 
[Ci fib]
-3.4 -7.4 74 -3  1023.5  -0.4  765  313           
12 07.02.14 060 (СВ) 10 км    10/0 верхняя 
[Ci fib]
+0.9 -5.9 60 +2  1022.1  -1.3  764  307           
15 07.02.14 тихо ()   10 км    8/0 верхняя 
[Ci fib]
-0.3 -5 70 -0  1022.4  0.3  764  309    +1.5       
18 07.02.14 тихо ()   10 км    6/0 верхняя 
[Ci fib]
-3.6 -5.9 84 -4  1022.8  0.3  764  313           
21 07.02.14 060 (СВ) 10 км    10/0 верхняя 
[Ci fib]
-4.1 -6.1 86 -4  1022.6  -0.3  764  313           
00 08.02.14 240 (ЮЗ) 10 км    9/9 600 м 
[Sc]
-3.5 -4.9 90 -3  1022.9  0.3  764  313           
03 08.02.14 тихо ()   10 км    9/4 1000 м средняя, верхняя 
[Sc|Ac trans|Ci fib]
-3.6 -5.3 88 -4  1023.4  0.5  765  313  -5.1      равномерный
мокрый или
старый снег
100% 
06 08.02.14 070 (В) 4000 м  дымка  9/8 1000 м средняя 
[Sc|Ac trans]
-3.1 -5.4 84 -3  1024.1  0.8  765  313           
09 08.02.14 080 (В) 10 км    10/8 1000 м средняя 
[Sc|Ac trans]
+1 -3.6 71 +2  1024.1  765  308           
12 08.02.14 060 (СВ) 10 км    9/6 1000 м средняя 
[Sc|Ac trans]
+2.8 -2.5 68 +4  1023  -1.1  764  305           
15 08.02.14 080 (В) 10 км    ясно 
+2 -2.3 73 +3  1023  764  306    +2.9       
18 08.02.14 100 (В) 10 км    10/0 средняя, верхняя 
[Ac trans|Ci fib]
+1.8 -2.4 74 +1  1022.7  -0.3  764  306           
21 08.02.14 110 (В) 10 км    10/8 1000 м средняя 
[Sc|Ac und]
+3.2 -0.7 76 +3  1020.6  -2.1  763  304           
00 09.02.14 110 (В) 10 км    10/10 1000 м 
[Sc]
+1.6 -1.2 82 +1  1020  -0.6  762  305           
03 09.02.14 060 (СВ) 10 км    9/6 1000 м средняя 
[Sc|Ac trans]
+2.4 -1.4 76 +3  1018.9  -1  761  304  +0.8      равномерный
мокрый или
старый снег
100% 
06 09.02.14 040 (СВ) 10 км    10/6 1000 м средняя, верхняя 
[Sc|Ac trans|Ci fib]
+2.7 -0.9 77 +3  1018.9  761  304           
09 09.02.14 050 (СВ) 10 км    10/5 1000 м средняя 
[Sc|Ac und]
+5.5 -0.8 64 +6  1017.6  -1.3  760  300           
12 09.02.14 тихо ()   10 км    10/5 1000 м средняя 
[Sc|Ac und]
+5.5 -0.2 67 +6  1016.8  -0.9  760  300           
15 09.02.14 тихо ()   10 км    10/6 1000 м средняя 
[Sc|Ac und]
+4.6 -0.2 71 +5  1016.8  760  301    +5.6       
18 09.02.14 180 (Ю) 10 км  слаб. дождь  10/8 1000 м средняя 
[Sc|Ac und]
+7.9 -0.5 55 +8  1016.6  0.1  760  298           
21 09.02.14 тихо ()   4000 м  слаб. дождь  10/10 600 м 
[Ns]
+6.2 +3.6 83 +6  1016.4  -0.2  760  299           
00 10.02.14 тихо ()   10 км  в посл. час ливневой дождь  10/10 600 м кучево-дожд. 
[Cb cap]
+5.4 +2.5 82 +5  1015.5  -1  759  299           
03 10.02.14 170 (Ю) 4000 м  слаб. ливневой дождь  10/10 300 м кучево-дожд. 
[Cb cap]
+6.9 +0.8 65 +8  1015  -0.5  758  298  +4.6    мокрый или
старый снег
50-90% 
06 10.02.14 тихо ()   10 км  {ливн. осадки}  10/10 600 м кучево-дожд. 
[Cb cap]
+5.6 +2.7 82 +6  1014.8  0.1  758  299           
09 10.02.14 100 (В) 10 км  в посл. час ливневой дождь  8/4 1000 м средняя 
[Sc|Ac trans]
+10.8 -0.7 45 +11  1014  -0.8  758  294           
12 10.02.14 070 (В) 10 км  {ливн. осадки}  10/5 1000 м средняя, верхняя 
[Sc|Ac trans|Ci fib]
+13 +0.8 43 +14  1013.3  -0.6  757  291           
15 10.02.14 тихо ()   10 км    10/8 1000 м средняя 
[Sc|Ac und]
+8 +1.7 64 +8  1014  0.6  758  296    +13.9     
18 10.02.14 тихо ()   10 км    10/8 1000 м средняя 
[Sc|Ac und]
+6.3 +1.9 73 +6  1014.8  0.8  758  298           
21 10.02.14 тихо ()   10 км    9/9 1000 м 
[Sc]
+5.3 +1.8 78 +5  1016  1.1  759  300           
00 11.02.14 180 (Ю) 10 км  {ливн. осадки}  9/9 1000 м кучево-дожд. 
[Cb cap]
+7.9 +4.8 81 +9  1017.1  1.2  760  297           
06 11.02.14 210 (ЮЗ) 10 км    3/0 средняя 
[Ac trans]
+9.7 +6.6 81 +10  1020.1  1.8  762  296           
09 11.02.14 220 (ЮЗ) 10 км    9/9 600 м 
[Sc]
+12 +7.7 75 +12  1021.1  763  293           
12 11.02.14 180 (Ю) 10 км    ясно 
+13.5 +4.5 54 +14  1020.9  0.1  763  292           
15 11.02.14 190 (Ю) 10 км    8/0 средняя, верхняя 
[Ac cast|Ci fib]
+10.4 +3.5 62 +10  1022.3  1.3  764  296    +13.7       
18 11.02.14 180 (Ю) 10 км    4/0 средняя 
[Ac trans]
+8.8 +2.6 65 +9  1023.3  765  298           
21 11.02.14 150 (ЮВ) 10 км    9/0 средняя 
[Ac und]
+8.2 +4.9 80 +9  1023.1  -0.3  764  298           
00 12.02.14 060 (СВ) 10 км    9/0 средняя, верхняя 
[Ac trans|Ci fib]
+4.7 +3 89 +6  1023  0.1  764  302           
03 12.02.14 070 (В) 10 км    9/0 средняя 
[Ac und]
+4.3 +2.9 91 +5  1023.3  0.3  765  303  +4.2         
06 12.02.14 090 (В) 10 км    8/0 средняя, верхняя 
[Ac trans|Ci fib]
+5.4 +3.5 88 +5  1023.3  0.1  765  302           
09 12.02.14 110 (В) 10 км    10/0 верхняя 
[Ci fib]
+12.2 +5.4 63 +13  1022.4  -0.8  764  294           
12 12.02.14 070 (В) 10 км    10/0 верхняя 
[Ci fib]
+14.5 +5 53 +15  1020.6  -1.7  763  291           
15 12.02.14 060 (СВ) 10 км    10/0 средняя, верхняя 
[Ac trans|Ci fib]
+10.6 +6.3 75 +11  1020.6  -0.1  763  295    +14.6       
18 12.02.14 060 (СВ) 10 км    5/0 верхняя 
[Ci fib]
+7 +4.1 82 +8  1020.2  -0.5  762  299           
21 12.02.14 тихо ()   10 км    10/0 верхняя 
[Ci fib]
+4.2 +2.5 89 +4  1019.1  -1.1  761  302           
00 13.02.14 090 (В) 10 км    4/0 верхняя 
[Ci fib]
+3.8 +1.4 84 +3  1017.8  -1.1  761  302           
03 13.02.14 060 (СВ) 4000 м  дымка  3/3 200 м 
[St]
+1.9 +0.3 89 +3  1017.3  -0.6  760  304  +1.9         
06 13.02.14 080 (В) 4000 м  дымка  10/0 средняя, верхняя 
[Ac trans|Ci fib]
+3.6 +0.8 82 +4  1017.2  0.1  760  302  +1.3         
09 13.02.14 070 (В) 10 км    8/0 средняя, верхняя 
[Ac trans|Cc]
+11.7 +3.7 58 +13  1016.4  -0.7  760  293           
12 13.02.14 070 (В) 10 км    8/0 средняя, верхняя 
[Ac trans|Cc]
+14.8 +6 56 +15  1014.5  -1.8  758  289           
15 13.02.14 060 (СВ) 10 км    10/0 средняя, верхняя 
[Ac trans|Cc]
+10.3 +5.2 71 +10  1014.3  -0.3  758  293    +15.6       
18 13.02.14 050 (СВ) 4000 м  дымка  ясно 
+6.8 +3.3 78 +8  1014.2  0.1  758  297           
21 13.02.14 тихо ()   4000 м  дымка  ясно 
+4.5 +3 90 +5  1013.9  -0.4  758  300           
00 14.02.14 080 (В) 4000 м  дымка  ясно 
+2.4 +1.5 94 +3  1013.8  -0.2  758  302           
03 14.02.14 070 (В) 4000 м  дымка  4/0 средняя 
[Ac trans]
+1.6 +0.5 92 +2  1013.4  -0.4  757  303  +1.4         
06 14.02.14 060 (СВ) 10 км    8/0 средняя, верхняя 
[Ac trans|Ci fib]
+4 +0.5 78 +4  1013.4  757  301           
09 14.02.14 070 (В) 10 км    8/0 средняя, верхняя 
[Ac lent|Ci fib]
+14.5 +3.2 47 +16  1012.9  -0.4  757  289           
12 14.02.14 тихо ()   10 км    10/3 1000 м средняя, верхняя 
[Sc|Ac As|Ci fib]
+17.6 +3 38 +18  1011.4  -1.4  756  286           
15 14.02.14 060 (СВ) 10 км    9/0 
[]
+13.4 +4.5 55 +15  1011.8  0.3  756  290    +17.8       
18 14.02.14 060 (СВ) 10 км    10/0 средняя 
[Ac und]
+9.8 +4.6 70 +11  1012.1  0.2  756  293           
21 14.02.14 тихо ()   10 км    4/0 средняя, верхняя 
[Ac trans|Ci fib]
+6 +3.8 86 +6  1011.8  -0.3  756  298           
00 15.02.14 тихо ()   10 км    10/0 верхняя 
[Ci]
+4 +2.7 91 +4  1011.9  0.1  756  300           
03 15.02.14 тихо ()   10 км    10/0 верхняя 
[Ci fib]
+2.4 +1.1 91 +2  1012.1  0.1  756  302  +2.4         
06 15.02.14 070 (В) 2000 м    8/3 200 м средняя, верхняя 
[St|Ac trans|Cc]
+1.4 +0.5 94 +2  1012.9  0.1  757  303  +1.2         
09 15.02.14 070 (В) 10 км    8/4 300 м средняя, верхняя 
[St|Ac trans|Cc]
+9.1 +4.1 71 +10  1012.8  757  294           
12 15.02.14 030 (СВ) 10 км    10/0 верхняя 
[Cc]
+14.8 +5.6 54 +16  1011.8  756  288           
15 15.02.14 020 (С) 10 км    10/3 1000 м средняя, верхняя 
[Sc|Ac trans|Cc]
+9.7 +5.3 74 +11  1012.8  0.9  757  294    +15.4       
18 15.02.14 тихо ()   10 км    10/0 средняя 
[Ac trans]
+7.3 +4.9 85 +7  1013.9  1.1  758  297           
21 15.02.14 020 (С) 10 км    10/0 средняя 
[Ac trans]
+4.9 +3.5 91 +6  1014.2  0.3  758  299           
00 16.02.14 050 (СВ) 1000 м  дымка  10/10 100 м 
[St]
+2.3 +1.6 95 +3  1015.5  1.2  759  303           
03 16.02.14 020 (С) 0200 м  туман  ?/?  
+1.7 +1.2 97 +2  1016.3  0.9  759  304  +1.6         
06 16.02.14 100 (В) 0200 м  туман  ?/?  
+1.7 +1.2 97 +2  1017.7  1.3  760  304  +1.6         
09 16.02.14 тихо ()   2000 м  в посл. час туман  10/10 200 м 
[St]
+3.1 +2.6 96 +3  1018.8  1.1  761  303           
12 16.02.14 290 (З) 4000 м  дымка{туман}  10/10 300 м 
[St]
+4.1 +2.7 91 +5  1019  0.2  761  302           
15 16.02.14 290 (З) 1000 м  дымка  10/10 100 м 
[St]
+2.9 +2 94 +2  1020.8  1.8  763  304    +4.4       
18 16.02.14 тихо ()   0500 м  туман  ?/?  
+2.9 +2.1 94 +3  1021.6  0.8  763  304           
21 16.02.14 тихо ()   2000 м  дымка{туман}  10/10 200 м 
[St]
+3.2 +2.3 94 +3  1021  -0.6  763  304           
00 17.02.14 270 (З) 2000 м  дымка{туман}  10/10 200 м 
[St]
+3.1 +2.1 93 +4  1021.3  0.3  763  304           
03 17.02.14 250 (З) 10 км    5/5 600 м 
[St]
+4.1 +2.3 88 +5  1021.3  763  303  +2.8         
06 17.02.14 тихо ()   10 км    9/5 1000 м средняя 
[Sc|Ac trans]
+3.8 +2.3 90 +4  1021  -0.2  763  303  +2.3         
09 17.02.14 210 (ЮЗ) 10 км    9/4 1000 м средняя 
[Sc|Ac trans]
+10.7 +3.3 60 +10  1020.3  -0.6  762  295           
12 17.02.14 220 (ЮЗ) 4{10}  10 км    10/8 1000 м средняя 
[Sc|Ac und]
+10.7 +2.9 59 +10  1019.5  -0.8  762  295           
15 17.02.14 200 (Ю) 4{11}  10 км    8/5 1000 м средняя, верхняя 
[Sc|Ac trans|Ci fib]
+9.8 +3.3 64 +9  1019.3  -0.2  762  296    +11       
18 17.02.14 210 (ЮЗ) 4-10{10}  10 км    5/3 1000 м средняя, верхняя 
[Sc|Ac trans|Ci fib]
+9.2 +3.5 68 +8  1018.8  -0.5  761  296           
21 17.02.14 210 (ЮЗ) 4{11}  10 км    8/4 600 м верхняя 
[Sc|Ci fib]
+9.8 +3.6 65 +9  1017.6  -1.3  760  295           
00 18.02.14 210 (ЮЗ) 4{11}  10 км    10/8 600 м верхняя 
[Sc|Ci fib]
+9.7 +3.2 64 +9  1016.9  -0.7  760  295           
03 18.02.14 220 (ЮЗ) 5-10{10}  10 км  {ливн. осадки}  8/4 1000 м кучево-дожд., средняя, верхняя 
[Cb cap|Ac trans|Cc]
+10.8 +0.7 50 +10  1016.1  -0.8  759  294  +8.7    0.0     
06 18.02.14 300 (СЗ) 3{10}  10 км  {ливн. осадки}  10/10 600 м кучево-дожд. 
[Cb cap]
+8.5 +5.1 79 +8  1017.8  -0.8  761  296  +8.5         
09 18.02.14 290 (З) 4000 м  слаб. ливневой дождь  10/10 200 м кучево-дожд. 
[Cb cap]
+7.1 +5.8 91 +7  1018.6  0.8  761  298           
12 18.02.14 300 (СЗ) 4000 м  слаб. ливневой дождь  10/10 200 м кучево-дожд. 
[Cb cap]
+6.4 +5.3 93 +6  1019.1  0.8  761  299           
15 18.02.14 290 (З) 4000 м  слаб. ливневой дождь  10/10 200 м кучево-дожд. 
[Cb cap]
+5.3 +3.9 91 +6  1021  1.9  763  301    +11.2     
18 18.02.14 290 (З) 10 км  {ливн. осадки}  9/9 300 м 
[Sc diur, vesp]
+4 +2.2 88 +4  1023.4  2.4  765  303           
21 18.02.14 250 (З) 1000 м  дымка  10/10 100 м 
[St]
+1.4 +0.6 94 +1  1025.8  2.3  767  307           
00 19.02.14 240 (ЮЗ) 1000 м  дымка  10/10 200 м 
[St]
+1.1 +0.4 95 +2  1026.8  767  308           
03 19.02.14 220 (ЮЗ) 1000 м  в посл. час туман  10/10 200 м 
[St]
+2 +1.3 95 +3  1027.4  0.6  768  307  +0.9    0.0     
06 19.02.14 200 (Ю) 4000 м  дымка  10/4 600 м средняя, верхняя 
[Sc|Ac trans|Ci fib]
+2.8 +1.3 90 +4  1027.6  0.3  768  306           
09 19.02.14 220 (ЮЗ) 10 км    10/3 1000 м верхняя 
[Sc|Ci fib]
+8.5 +0.5 57 +8  1027  -0.5  767  300           
12 19.02.14 250 (З) 10 км    10/3 1000 м верхняя 
[Sc|Cs]
+10.5 +0.7 51 +10  1025.4  -1.6  766  297           
15 19.02.14 210 (ЮЗ) 10 км    10/5 1000 м верхняя 
[Sc|Cs]
+7.7 -0.5 56 +7  1024  -1.5  765  300    +10.6       
18 19.02.14 220 (ЮЗ) 10 км    8/4 1000 м средняя, верхняя 
[Sc|Ac trans|Ci fib]
+6.2 +0.8 68 +7  1022.3  -1.7  764  301           
21 19.02.14 200 (Ю) 10 км    10/4 1000 м средняя, верхняя 
[Sc|Ac trans|Ci fib]
+8 +1.6 64 +7  1019.8  -2.5  762  298           
00 20.02.14 210 (ЮЗ) 3{11}  10 км    10/0 средняя, верхняя 
[Ac trans|Cs]
+7.9 +0.7 60 +7  1017.8  -2  761  298           
03 20.02.14 200 (Ю) 10 км    10/3 1000 м верхняя 
[Sc|Ci fib]
+9.4 +1.3 57 +9  1015.7  -2  759  295  +6.1         
06 20.02.14 200 (Ю) 10 км    10/0 средняя, верхняя 
[Ac trans|Ci fib]
+11.6 -0.1 44 +11  1014.4  -1.3  758  293           
09 20.02.14 210 (ЮЗ) 6-12{14}  10 км    10/0 средняя, верхняя 
[Ac trans|Ci fib]
+15.4 +2 40 +15  1013  -1.3  757  288           
12 20.02.14 220 (ЮЗ) 5-10{17}  10 км    10/5 1000 м средняя 
[Sc|Ac und]
+15.7 +2.4 41 +15  1011.2  -1.8  756  288           
15 20.02.14 220 (ЮЗ) 4{13}  10 км    10/8 1000 м средняя 
[Sc|Ac und]
+12.9 +6.6 66 +12  1012.8  1.6  757  290    +16.2       
18 20.02.14 240 (ЮЗ) 10 км    10/8 1000 м средняя 
[Sc|Ac und]
+10.8 +7.3 79 +11  1014.1  1.3  758  293           
21 20.02.14 280 (З) 10 км    10/10 1000 м 
[Sc]
+9.2 +7.4 89 +9  1015.5  1.3  759  295           
03 21.02.14 300 (СЗ) 4000 м  слаб. дождь  10/10 300 м 
[Frnb|Ns]
+5.5 +4.3 92 +5  1016.7  1.5  760  299  +5.5       
06 21.02.14 280 (З) 2000 м  дымка{дождь}  10/10 200 м 
[Frnb|Ns]
+5.4 +3.9 90 +5  1018.6  1.9  761  300  +5.3         
09 21.02.14 270 (З) 4000 м  дымка{дождь}  10/10 300 м 
[Sc]
+6.3 +2.3 76 +6  1020.2  1.6  762  300           
12 21.02.14 290 (З) 10 км  {дождь}  8/8 1000 м 
[Sc]
+10.6 -0.5 46 +11  1020.7  0.5  763  296           
15 21.02.14 340 (С) 10 км    3/3 600 м 
[Sc]
+7.7 -0.1 58 +9  1022.2  1.5  764  299    +10.8  0.3     
18 21.02.14 020 (С) 10 км    ясно 
+4.9 +0.6 74 +6  1023  0.8  764  303           
21 21.02.14 040 (СВ) 10 км    ясно 
+3.4 +0.3 80 +4  1023.1  764  304           
00 22.02.14 050 (СВ) 10 км    ясно 
+1.6 -0.8 84 +2  1022.5  -0.6  764  306           
03 22.02.14 060 (СВ) 10 км    ясно 
+0.9 -1.7 83 1022.6  -0.1  764  307  +0.9         
06 22.02.14 050 (СВ) 10 км    4/0 средняя, верхняя 
[Ac trans|Ci fib]
+2.5 -1.5 75 +1  1022.6  764  305  +0.7         
09 22.02.14 060 (СВ) 4{10}  10 км    6/1 1000 м верхняя 
[Sc|Ci fib]
+6.7 +0.5 65 +5  1021.3  -1.2  763  300           
12 22.02.14 050 (СВ) 4-11{11}  10 км    10/3 1000 м верхняя 
[Sc|Ci fib]
+8.1 +1 61 +7  1019.8  -1.5  762  298           
15 22.02.14 050 (СВ) 3{11}  10 км    10/0 средняя, верхняя 
[Ac trans|Ci fib]
+5.8 +0 66 +5  1020.1  0.3  762  301    +8.4       
18 22.02.14 060 (СВ) 10 км    ясно 
+2.7 -1.6 73 +1  1020.8  0.6  763  305           
21 22.02.14 050 (СВ) 10 км    ясно 
+1.4 -2.3 76 1020  -0.8  762  306           
00 23.02.14 060 (СВ) 10 км    ясно 
+1.3 -2.8 74 +1  1019.9  0.1  762  306           
03 23.02.14 070 (В) 10 км    10/0 верхняя 
[Ci fib]
+1.2 -2.8 75 +1  1020.2  0.3  762  306  +1.1         
06 23.02.14 080 (В) 10 км    10/0 верхняя 
[Ci fib]
+2.5 -2.7 69 +1  1021.6  1.4  763  305           
09 23.02.14 090 (В) 3{10}  10 км    10/0 верхняя 
[Ci fib]
+6.4 -2 55 +5  1022.1  0.6  764  301           
12 23.02.14 080 (В) 10 км    10/0 верхняя 
[Ci fib]
+9.5 -0.5 50 +9  1021.3  -0.8  763  297           
15 23.02.14 050 (СВ) 10 км    10/0 верхняя 
[Ci fib]
+6.6 +0.1 63 +6  1021.4  0.1  763  300    +9.5       
18 23.02.14 060 (СВ) 10 км    ясно 
+3.1 -1.1 74 +3  1021.8  0.3  764  304           
21 23.02.14 060 (СВ) 10 км    ясно 
+1.8 -2 76 +1  1022  0.2  764  306           
00 24.02.14 060 (СВ) 10 км    6/6 600 м 
[Sc]
+1.4 -1.8 79 +1  1022.1  0.2  764  306           
03 24.02.14 050 (СВ) 10 км    10/0 верхняя 
[Ci fib]
+0.8 -1.4 85 +1  1022.2  764  307  +0.8         
06 24.02.14 050 (СВ) 10 км    10/3 1000 м средняя, верхняя 
[Sc|Ac trans|Ci fib]
+2.3 -0.9 79 +1  1023  0.8  764  306  +0.7         
09 24.02.14 060 (СВ) 10 км    10/3 1000 м верхняя 
[Sc|Ci fib]
+7.2 +0.2 61 +7  1023.2  0.2  765  300           
12 24.02.14 070 (В) 10 км    10/3 1000 м средняя, верхняя 
[Sc|Ac trans|Ci fib]
+9.1 +1.1 57 +9  1021.8  -1.3  764  298           
15 24.02.14 030 (СВ) 2{10}  10 км    10/3 1000 м средняя, верхняя 
[Sc|Ac trans|Ci fib]
+6.8 +1.6 69 +7  1022.1  0.3  764  300    +9.6       
18 24.02.14 040 (СВ) 10 км    8/3 1000 м средняя, верхняя 
[Sc|Ac trans|Ci fib]
+3.7 +0.4 79 +3  1022.6  0.4  764  304           
21 24.02.14 050 (СВ) 10 км    10/5 300 м средняя, верхняя 
[St|Ac trans|Ci fib]
+2.7 +0 82 +1  1022.3  -0.3  764  305           
00 25.02.14 050 (СВ) 10 км    10/8 600 м средняя 
[St|Ac und]
+3 +0.2 82 +2  1022.1  -0.2  764  304           
03 25.02.14 050 (СВ) 10 км    9/8 300 м средняя 
[St|Ac und]
+2.8 +0.1 82 +2  1021.9  -0.2  764  305  +2.6         
06 25.02.14 050 (СВ) 10 км    9/9 300 м 
[St]
+4.1 +0.6 78 +3  1021.9  764  303           
09 25.02.14 060 (СВ) 10 км    9/9 600 м 
[Sc]
+8.1 +1.7 64 +7  1020.8  -1  763  298           
12 25.02.14 050 (СВ) 10 км    8/0 средняя, верхняя 
[Ac trans|Ci fib]
+10.6 +1.8 54 +10  1019.4  -1.4  762  295           
18 25.02.14 070 (В) 4{11}  10 км    3/3 600 м 
[Sc]
+5.4 +0.7 72 +4  1020  0.2  762  301           
21 25.02.14 060 (СВ) 2{10}  10 км    4/3 600 м верхняя 
[Sc|Ci fib]
+3.3 +0.5 82 +3  1019.6  -0.5  762  303           
00 26.02.14 060 (СВ) 10 км    10/0 средняя 
[Ac und]
+3.2 +0.3 81 +2  1018.6  -1  761  303           
03 26.02.14 040 (СВ) 10 км    9/9 600 м 
[Sc]
+2.4 -0 84 +3  1018.8  0.2  761  304  +2.3         
06 26.02.14 050 (СВ) 10 км    10/5 600 м средняя, верхняя 
[Sc|Ac trans|Ci fib]
+3.5 +0.5 81 +3  1019.5  0.7  762  303           
09 26.02.14 060 (СВ) 10 км    9/8 600 м средняя 
[Sc|Ac trans]
+5.7 +1 72 +5  1019.9  0.4  762  301           
12 26.02.14 060 (СВ) 10 км    10/8 600 м средняя 
[Sc|Ac und]
+7.3 +2 69 +7  1019.6  -0.3  762  299           
15 26.02.14 060 (СВ) 4000 м  слаб. ливневой дождь  10/8 600 м кучево-дожд., средняя 
[Cb cap|Ac und]
+7 +3.2 77 +8  1020.2  0.6  762  299    +7.8  0.0     
18 26.02.14 080 (В) 10 км  в посл. час ливневой дождь  9/9 600 м кучево-дожд. 
[Cb cap]
+6.7 +3.5 80 +8  1020.8  0.5  763  299           
21 26.02.14 090 (В) 10 км    10/10 600 м 
[Sc]
+7 +3.5 78 +7  1021.1  0.4  763  299           
00 27.02.14 160 (Ю) 10 км    9/9 600 м кучево-дожд. 
[Cb cap]
+7.3 +4.2 81 +8  1021.5  0.4  763  299           
03 27.02.14 160 (Ю) 10 км    10/8 600 м кучево-дожд., средняя 
[Cb cap|Ac und]
+7.3 +3.8 78 +8  1022  0.5  764  299  +6.5    0.8     
06 27.02.14 170 (Ю) 10 км    10/10 600 м 
[Sc]
+7.8 +3.7 75 +9  1022.6  0.6  764  299           
09 27.02.14 230 (ЮЗ) 10 км    10/6 1000 м средняя, верхняя 
[Sc|Ac trans|Ci fib]
+9.9 +3.2 63 +10  1022.6  764  297           
12 27.02.14 230 (ЮЗ) 10 км    10/8 1000 м кучево-дожд., средняя 
[Cb cap|Ac und]
+10.5 +1.7 54 +11  1021.6  -1  763  296           
15 27.02.14 250 (З) 10 км    10/8 1000 м кучево-дожд., средняя 
[Cb cap|Ac und]
+9.3 +2 60 +9  1021.8  0.2  764  297    +10.6       
18 27.02.14 240 (ЮЗ) 10 км    10/8 1000 м средняя 
[Sc|Ac und]
+8.2 +2.3 66 +9  1022  0.2  764  298           
21 27.02.14 220 (ЮЗ) 10 км    10/8 600 м кучево-дожд., средняя 
[Cb cap|Ac und]
+7.4 +2.4 71 +8  1022  764  299           
00 28.02.14 270 (З) 10 км    10/10 600 м кучево-дожд. 
[Cb cap]
+7.2 +2.5 72 +8  1021.3  -0.7  763  299           
03 28.02.14 130 (ЮВ) 10 км    10/8 600 м средняя 
[Sc|Ac und]
+6.6 +2.6 76 +8  1021.2  -0.2  763  300  +6.4         
06 28.02.14 150 (ЮВ) 10 км    9/6 1000 м средняя 
[Sc|Ac trans]
+7 +3.4 78 +7  1021.4  0.3  763  299  +6.3         
09 28.02.14 200 (Ю) 10 км  слаб. ливневой дождь  10/10 600 м кучево-дожд. 
[Cb cap]
+8.9 +2.4 64 +8  1021  -0.4  763  297           
12 28.02.14 190 (Ю) 10 км  {ливн. осадки}  10/8 600 м кучево-дожд., средняя 
[Cb cap|Ac und]
+9.4 +2.6 62 +8  1020.1  -0.9  762  297           
15 28.02.14 200 (Ю) 10 км  слаб. ливневой дождь  10/10 600 м кучево-дожд. 
[Cb cap]
+7.4 +3.6 77 +7  1020.4  0.3  763  299    +9.5  0.0     
18 28.02.14 170 (Ю) 10 км  {ливн. осадки}  10/8 600 м средняя 
[Sc|Ac und]
+6.9 +3.8 81 +8  1020.5  0.1  763  299           
21 28.02.14 180 (Ю) 10 км  слаб. дождь  10/10 600 м 
[Sc]
+6.5 +3.7 82 +7  1020.4  0.1  763  300           
00 01.03.14 160 (Ю) 10 км  {дождь}  10/8 600 м средняя 
[Sc|Ac und]
+6.7 +3.5 80 +8  1019.9  -0.5  762  299           
03 01.03.14 070 (В) 10 км  слаб. дождь  10/10 600 м 
[Sc]
+5.9 +4.6 91 +7  1020.5  0.6  763  300  +5.9    0.8     
06 01.03.14 090 (В) 10 км  в посл. час дождь  10/10 300 м 
[Frnb]
+6.3 +4.6 89 +7  1021.1  0.5  763  300           
09 01.03.14 190 (Ю) 10 км    10/10 600 м 
[Sc]
+9.6 +4.5 71 +11  1020.8  -0.2  763  296           
Время (UTC), дата Ветер
(°,м/с) 
Видим.   Явления Облачность Т
(°С)
Тd
(°С)
f(%) Тe
(°С)
Pmin
(гПа)
dP
(гПа)
Po
(мм)
O2
(г/м3)
Тmin Tmax R s Состояние
почвы